User: anonymous   Login
Location: Unspecified
(0.0000°N, 0.0000°E)
Time: 07:29:01
(UTC+00:00)
Language:

Vanguard 2 Rocket - Orbit

View from above orbital plane
View from above orbital plane
View from above satellite
View from above satellite

Ground track
Ground track

The orbit data is extracted from the following two-line orbital elements,

1    12U 59001B   20093.90192355 -.00000105 +00000-0 -57018-4 0  9999
2    12 032.8976 255.2630 1666272 038.7128 332.1809 11.44295992271329
Epoch (UTC): 02 April 2020 21:38:46
Eccentricity: 0.1666272
inclination: 32.8976°
perigee height: 554 km
apogee height: 3326 km
right ascension of ascending node: 255.2630°
argument of perigee: 38.7128°
revolutions per day: 11.44295992
mean anomaly at epoch: 332.1809°
orbit number at epoch: 27132

The dashed part of the orbit path shows where the satellite is in the earth's shadow,  

DLR